This is the latest recevied weather packets stored in our database for station/object GW4003. If no packets are shown the sender has not sent any weather packets the latest 10 day(s).
| Time | Temp. | Humidity | Pressure | Rain* | Wind** | Luminosity | Snow |
|---|---|---|---|---|---|---|---|
| 1778024926 | 0.56° C | 89% | 1014.4 hPa | 0.25 mm | - | - | - |
| 1778024623 | 0.56° C | 89% | 1014.3 hPa | 0.51 mm | - | - | - |
| 1778024320 | 0.56° C | 88% | 1014.3 hPa | 0.51 mm | - | - | - |
| 1778024017 | 0.56° C | 88% | 1014.1 hPa | 0.76 mm | - | - | - |
| 1778023713 | 0.56° C | 88% | 1014.2 hPa | 1.02 mm | - | - | - |
| 1778023410 | 0.56° C | 88% | 1014 hPa | 1.02 mm | - | - | - |
| 1778023106 | 1.11° C | 88% | 1013.9 hPa | 1.02 mm | - | - | - |
| 1778022803 | 1.11° C | 88% | 1014 hPa | 1.02 mm | - | - | - |
| 1778022499 | 1.67° C | 88% | 1014 hPa | 1.27 mm | - | - | - |
| 1778022196 | 1.67° C | 88% | 1014.1 hPa | 1.27 mm | - | - | - |
| 1778021893 | 2.22° C | 88% | 1014.2 hPa | 1.02 mm | - | - | - |
| 1778021590 | 2.22° C | 88% | 1014.3 hPa | 1.02 mm | - | - | - |
| 1778021286 | 2.78° C | 88% | 1014 hPa | 1.02 mm | - | - | - |
| 1778020983 | 2.78° C | 88% | 1013.8 hPa | 1.27 mm | - | - | - |
| 1778020680 | 2.78° C | 88% | 1013.8 hPa | 1.02 mm | - | - | - |
| 1778020377 | 2.78° C | 88% | 1013.6 hPa | 1.02 mm | - | - | - |
| 1778020074 | 2.78° C | 88% | 1013.4 hPa | 0.76 mm | - | - | - |
| 1778019771 | 2.78° C | 88% | 1013.5 hPa | 0.76 mm | - | - | - |
| 1778019466 | 3.33° C | 88% | 1013.5 hPa | 0.76 mm | - | - | - |
| 1778019163 | 3.33° C | 88% | 1013.6 hPa | 0.76 mm | - | - | - |
| 1778018860 | 3.33° C | 88% | 1013.6 hPa | 0.51 mm | - | - | - |
| 1778018557 | 3.33° C | 88% | 1013.5 hPa | 0.51 mm | - | - | - |
| 1778018253 | 3.33° C | 87% | 1013.2 hPa | 0.51 mm | - | - | - |
| 1778017950 | 3.33° C | 87% | 1013.2 hPa | 0.51 mm | - | - | - |
| 1778017647 | 3.89° C | 87% | 1013.2 hPa | 0.25 mm | - | - | - |
* Rain latest hour (hover to see other rain measurements)
** Current wind speed in m/s (hover to see current wind gust speed)